| time (UTC) | temp C | wind direction | speed KPH | gust KPH | rain 1hr cm | rain 24hr cm | rain mn cm | humidity % | barometer mb |
| 20260504175100 | 23 | 158 | 1.6 | 14.5 | 0.00 | 0.00 | 0.00 | 36 | 1011.2 |
| 20260504174608 | 23 | 249 | 3.2 | 9.7 | 0.00 | 0.00 | 0.00 | 36 | 1011.3 |
| 20260504174101 | 23 | 119 | 1.6 | 12.9 | 0.00 | 0.00 | 0.00 | 38 | 1011.4 |
| 20260504173600 | 22 | 133 | 3.2 | 12.9 | 0.00 | 0.00 | 0.00 | 37 | 1011.5 |
| 20260504173103 | 22 | 0 | 3.2 | 11.3 | 0.00 | 0.00 | 0.00 | 38 | 1011.4 |
| 20260504172602 | 22 | 152 | 3.2 | 11.3 | 0.00 | 0.00 | 0.00 | 39 | 1011.5 |
| 20260504172100 | 22 | 318 | 1.6 | 12.9 | 0.00 | 0.00 | 0.00 | 38 | 1011.6 |
| 20260504171601 | 22 | 352 | 4.8 | 12.9 | 0.00 | 0.00 | 0.00 | 36 | 1011.7 |
| 20260504171100 | 22 | 127 | 3.2 | 9.7 | 0.00 | 0.00 | 0.00 | 37 | 1011.7 |
| 20260504170603 | 22 | 153 | 3.2 | 9.7 | 0.00 | 0.00 | 0.00 | 37 | 1011.8 |
| 20260504160107 | 19 | 140 | 3.2 | 8.0 | 0.00 | 0.00 | 0.00 | 45 | 1012.7 |
| 20260504151100 | 17 | 138 | 1.6 | 8.0 | 0.00 | 0.00 | 0.00 | 48 | 1013.1 |
| 20260504150600 | 17 | 138 | 1.6 | 11.3 | 0.00 | 0.00 | 0.00 | 50 | 1013.2 |
| 20260504141058 | 16 | 115 | 0.0 | 4.8 | 0.00 | 0.00 | 0.00 | 48 | 1013.3 |
| 20260504140558 | 15 | 0 | 0.0 | 6.4 | 0.00 | 0.00 | 0.00 | 49 | 1013.3 |
| 20260504130559 | 12 | 0 | 0.0 | 6.4 | 0.00 | 0.00 | 0.00 | 57 | 1013.9 |
| 20260504110602 | 7 | 0 | 0.0 | 3.2 | 0.00 | 0.00 | 0.00 | 80 | 1014.4 |
| 20260504100559 | 8 | 0 | 0.0 | 1.6 | 0.00 | 0.00 | 0.00 | 74 | 1014.2 |
| 20260504081607 | 7 | 0 | 0.0 | 0.0 | 0.00 | 0.00 | 0.00 | 82 | 1014.6 |
| 20260504081100 | 7 | 0 | 0.0 | 0.0 | 0.00 | 0.00 | 0.00 | 82 | 1014.5 |
| 20260504080600 | 7 | 0 | 0.0 | 0.0 | 0.00 | 0.00 | 0.00 | 82 | 1014.5 |
| 20260504060126 | 6 | 0 | 0.0 | 1.6 | 0.00 | 0.00 | 0.00 | 83 | 1015.0 |
| 20260504050600 | 5 | 0 | 0.0 | 0.0 | 0.00 | 0.00 | 0.00 | 82 | 1014.9 |
| 20260504050116 | 5 | 0 | 0.0 | 0.0 | 0.00 | 0.00 | 0.00 | 81 | 1015.0 |
| 20260504045559 | 5 | 0 | 0.0 | 0.0 | 0.00 | 0.00 | 0.00 | 81 | 1014.9 |
| 20260504045059 | 5 | 0 | 0.0 | 0.0 | 0.00 | 0.00 | 0.00 | 81 | 1015.0 |
| 20260504044558 | 5 | 0 | 0.0 | 0.0 | 0.00 | 0.00 | 0.00 | 81 | 1014.9 |
| 20260504044059 | 5 | 0 | 0.0 | 0.0 | 0.00 | 0.00 | 0.00 | 81 | 1014.8 |
| 20260504043600 | 5 | 0 | 0.0 | 0.0 | 0.00 | 0.00 | 0.00 | 82 | 1014.9 |
| 20260504043110 | 5 | 0 | 0.0 | 0.0 | 0.00 | 0.00 | 0.00 | 82 | 1014.9 |
| 20260504042559 | 5 | 0 | 0.0 | 0.0 | 0.00 | 0.00 | 0.00 | 81 | 1014.9 |
| 20260504042100 | 5 | 0 | 0.0 | 0.0 | 0.00 | 0.00 | 0.00 | 81 | 1014.7 |
| 20260504041600 | 5 | 0 | 0.0 | 0.0 | 0.00 | 0.00 | 0.00 | 80 | 1014.8 |
| 20260504041100 | 5 | 0 | 0.0 | 0.0 | 0.00 | 0.00 | 0.00 | 80 | 1014.7 |
| 20260504040600 | 5 | 0 | 0.0 | 0.0 | 0.00 | 0.00 | 0.00 | 79 | 1014.7 |
| 20260504040106 | 5 | 0 | 0.0 | 0.0 | 0.00 | 0.00 | 0.00 | 79 | 1014.9 |
| 20260504035602 | 5 | 0 | 0.0 | 0.0 | 0.00 | 0.00 | 0.00 | 79 | 1015.0 |
| 20260504035100 | 5 | 0 | 0.0 | 0.0 | 0.00 | 0.00 | 0.00 | 79 | 1015.0 |
| 20260504034601 | 5 | 0 | 0.0 | 0.0 | 0.00 | 0.00 | 0.00 | 78 | 1015.1 |
| 20260504034059 | 5 | 0 | 0.0 | 0.0 | 0.00 | 0.00 | 0.00 | 79 | 1015.0 |
| 20260504033559 | 5 | 0 | 0.0 | 0.0 | 0.00 | 0.00 | 0.00 | 78 | 1015.0 |
| 20260504033100 | 5 | 0 | 0.0 | 0.0 | 0.00 | 0.00 | 0.00 | 77 | 1014.9 |
| 20260504032600 | 5 | 0 | 0.0 | 0.0 | 0.00 | 0.00 | 0.00 | 77 | 1014.9 |
| 20260504032102 | 5 | 0 | 0.0 | 0.0 | 0.00 | 0.00 | 0.00 | 77 | 1014.7 |
| 20260504031605 | 5 | 0 | 0.0 | 0.0 | 0.00 | 0.00 | 0.00 | 76 | 1014.8 |
| 20260504031100 | 6 | 0 | 0.0 | 0.0 | 0.00 | 0.00 | 0.00 | 76 | 1014.7 |
| 20260504030600 | 6 | 0 | 0.0 | 0.0 | 0.00 | 0.00 | 0.00 | 75 | 1014.7 |
| 20260504030057 | 6 | 0 | 0.0 | 0.0 | 0.00 | 0.00 | 0.00 | 75 | 1014.8 |
| 20260504025559 | 6 | 0 | 0.0 | 0.0 | 0.00 | 0.00 | 0.00 | 74 | 1014.7 |
| 20260504025059 | 6 | 0 | 0.0 | 0.0 | 0.00 | 0.00 | 0.00 | 72 | 1014.6 |
| 20260504024558 | 6 | 0 | 0.0 | 0.0 | 0.00 | 0.00 | 0.00 | 73 | 1014.6 |
| 20260504024100 | 6 | 0 | 0.0 | 0.0 | 0.00 | 0.00 | 0.00 | 71 | 1014.6 |
| 20260504023559 | 6 | 0 | 0.0 | 0.0 | 0.00 | 0.00 | 0.00 | 71 | 1014.6 |
| 20260504023059 | 6 | 0 | 0.0 | 0.0 | 0.00 | 0.00 | 0.00 | 71 | 1014.6 |
| 20260504022600 | 6 | 0 | 0.0 | 0.0 | 0.00 | 0.00 | 0.00 | 69 | 1014.6 |
| 20260504022059 | 6 | 0 | 0.0 | 0.0 | 0.00 | 0.00 | 0.00 | 69 | 1014.6 |
| 20260504021557 | 7 | 0 | 0.0 | 0.0 | 0.00 | 0.00 | 0.00 | 68 | 1014.5 |
| 20260504021059 | 7 | 0 | 0.0 | 0.0 | 0.00 | 0.00 | 0.00 | 68 | 1014.5 |
| 20260504020559 | 7 | 0 | 0.0 | 0.0 | 0.00 | 0.00 | 0.00 | 68 | 1014.4 |
| 20260504020058 | 7 | 0 | 0.0 | 0.0 | 0.00 | 0.00 | 0.00 | 67 | 1014.5 |
| 20260504015559 | 7 | 0 | 0.0 | 0.0 | 0.00 | 0.00 | 0.00 | 66 | 1014.4 |
| 20260504015100 | 7 | 0 | 0.0 | 0.0 | 0.00 | 0.00 | 0.00 | 66 | 1014.3 |
| 20260504014603 | 7 | 0 | 0.0 | 0.0 | 0.00 | 0.00 | 0.00 | 65 | 1014.3 |
| 20260504014059 | 8 | 0 | 0.0 | 0.0 | 0.00 | 0.00 | 0.00 | 63 | 1014.3 |
| 20260504013600 | 8 | 0 | 0.0 | 0.0 | 0.00 | 0.00 | 0.00 | 61 | 1014.3 |
| 20260504013113 | 8 | 0 | 0.0 | 0.0 | 0.00 | 0.00 | 0.00 | 60 | 1014.2 |
| 20260504012559 | 8 | 0 | 0.0 | 0.0 | 0.00 | 0.00 | 0.00 | 61 | 1014.1 |
| 20260504012100 | 9 | 0 | 0.0 | 0.0 | 0.00 | 0.00 | 0.00 | 59 | 1014.0 |
| 20260504011559 | 9 | 0 | 0.0 | 0.0 | 0.00 | 0.00 | 0.00 | 58 | 1014.0 |
| 20260504011059 | 9 | 0 | 0.0 | 0.0 | 0.00 | 0.00 | 0.00 | 58 | 1013.9 |
| 20260504010559 | 9 | 0 | 0.0 | 0.0 | 0.00 | 0.00 | 0.00 | 56 | 1013.9 |
| 20260504010115 | 10 | 0 | 0.0 | 0.0 | 0.00 | 0.00 | 0.00 | 55 | 1014.0 |
| 20260504005600 | 10 | 0 | 0.0 | 0.0 | 0.00 | 0.00 | 0.00 | 55 | 1014.0 |
| 20260504005100 | 10 | 0 | 0.0 | 0.0 | 0.00 | 0.00 | 0.00 | 54 | 1014.0 |
| 20260504004600 | 10 | 0 | 0.0 | 0.0 | 0.00 | 0.00 | 0.00 | 53 | 1013.9 |
| 20260504004102 | 10 | 0 | 0.0 | 0.0 | 0.00 | 0.00 | 0.00 | 52 | 1013.8 |
| 20260504003559 | 11 | 0 | 0.0 | 0.0 | 0.00 | 0.00 | 0.00 | 50 | 1013.8 |
| 20260504003057 | 11 | 0 | 0.0 | 0.0 | 0.00 | 0.00 | 0.00 | 50 | 1013.8 |
| 20260504002600 | 11 | 0 | 0.0 | 0.0 | 0.00 | 0.00 | 0.00 | 48 | 1013.7 |
| 20260504002100 | 12 | 0 | 0.0 | 0.0 | 0.00 | 0.00 | 0.00 | 47 | 1013.7 |
| 20260504001604 | 12 | 0 | 0.0 | 0.0 | 0.00 | 0.00 | 0.00 | 46 | 1013.7 |
| 20260504001100 | 12 | 0 | 0.0 | 0.0 | 0.00 | 0.00 | 0.00 | 45 | 1013.6 |
| 20260504000601 | 13 | 0 | 0.0 | 0.0 | 0.00 | 0.00 | 0.00 | 42 | 1013.5 |
| 20260504000101 | 13 | 0 | 0.0 | 0.0 | 0.00 | 0.00 | 0.00 | 40 | 1013.5 |
| 20260503235603 | 13 | 0 | 0.0 | 0.0 | 0.00 | 0.00 | 0.00 | 39 | 1013.4 |
| 20260503235100 | 14 | 0 | 0.0 | 0.0 | 0.00 | 0.00 | 0.00 | 38 | 1013.4 |
| 20260503234557 | 14 | 0 | 0.0 | 0.0 | 0.00 | 0.00 | 0.00 | 37 | 1013.5 |
| 20260503234102 | 15 | 0 | 0.0 | 0.0 | 0.00 | 0.00 | 0.00 | 35 | 1013.5 |
| 20260503233600 | 15 | 0 | 0.0 | 0.0 | 0.00 | 0.00 | 0.00 | 34 | 1013.4 |
| 20260503233103 | 15 | 0 | 0.0 | 1.6 | 0.00 | 0.00 | 0.00 | 34 | 1013.3 |
| 20260503232559 | 15 | 0 | 0.0 | 3.2 | 0.00 | 0.00 | 0.00 | 33 | 1013.3 |
| 20260503232059 | 15 | 0 | 0.0 | 3.2 | 0.00 | 0.00 | 0.00 | 30 | 1013.4 |
| 20260503231558 | 16 | 0 | 0.0 | 3.2 | 0.00 | 0.00 | 0.00 | 31 | 1013.3 |
| 20260503231100 | 16 | 0 | 0.0 | 4.8 | 0.00 | 0.00 | 0.00 | 31 | 1013.2 |
| 20260503230600 | 16 | 0 | 0.0 | 4.8 | 0.00 | 0.00 | 0.00 | 30 | 1013.2 |
| 20260503230058 | 16 | 0 | 0.0 | 8.0 | 0.00 | 0.00 | 0.00 | 29 | 1013.2 |
| 20260503225603 | 16 | 0 | 1.6 | 11.3 | 0.00 | 0.00 | 0.00 | 29 | 1013.2 |
| 20260503225100 | 16 | 0 | 1.6 | 11.3 | 0.00 | 0.00 | 0.00 | 30 | 1013.2 |
| 20260503224600 | 17 | 0 | 0.0 | 8.0 | 0.00 | 0.00 | 0.00 | 32 | 1013.2 |
| 20260503224102 | 17 | 90 | 1.6 | 8.0 | 0.00 | 0.00 | 0.00 | 29 | 1013.2 |
| 20260503223602 | 17 | 246 | 1.6 | 6.4 | 0.00 | 0.00 | 0.00 | 26 | 1013.2 |
| 20260503223100 | 18 | 339 | 0.0 | 8.0 | 0.00 | 0.00 | 0.00 | 27 | 1013.3 |
| 20260503222559 | 18 | 0 | 0.0 | 8.0 | 0.00 | 0.00 | 0.00 | 28 | 1013.2 |
| 20260503222101 | 18 | 52 | 1.6 | 11.3 | 0.00 | 0.00 | 0.00 | 25 | 1013.2 |
| 20260503221606 | 18 | 6 | 3.2 | 11.3 | 0.00 | 0.00 | 0.00 | 26 | 1013.3 |
| 20260503221100 | 19 | 151 | 0.0 | 6.4 | 0.00 | 0.00 | 0.00 | 27 | 1013.4 |
| 20260503220600 | 18 | 167 | 1.6 | 11.3 | 0.00 | 0.00 | 0.00 | 27 | 1013.3 |
| 20260503220104 | 18 | 242 | 1.6 | 12.9 | 0.00 | 0.00 | 0.00 | 26 | 1013.4 |
| 20260503215600 | 18 | 125 | 0.0 | 12.9 | 0.00 | 0.00 | 0.00 | 26 | 1013.3 |
| 20260503215059 | 18 | 125 | 0.0 | 8.0 | 0.00 | 0.00 | 0.00 | 28 | 1013.3 |
| 20260503214600 | 18 | 18 | 1.6 | 16.1 | 0.00 | 0.00 | 0.00 | 26 | 1013.4 |
| 20260503214059 | 18 | 181 | 1.6 | 16.1 | 0.00 | 0.00 | 0.00 | 26 | 1013.5 |
| 20260503213559 | 18 | 162 | 1.6 | 11.3 | 0.00 | 0.00 | 0.00 | 29 | 1013.5 |
| 20260503213108 | 18 | 158 | 1.6 | 9.7 | 0.00 | 0.00 | 0.00 | 27 | 1013.4 |
| 20260503212559 | 18 | 154 | 3.2 | 12.9 | 0.00 | 0.00 | 0.00 | 27 | 1013.6 |
| 20260503212059 | 18 | 0 | 3.2 | 24.1 | 0.00 | 0.00 | 0.00 | 28 | 1013.5 |
| 20260503211559 | 18 | 119 | 6.4 | 24.1 | 0.00 | 0.00 | 0.00 | 26 | 1013.6 |
| 20260503211101 | 19 | 121 | 0.0 | 9.7 | 0.00 | 0.00 | 0.00 | 28 | 1013.4 |
| 20260503210600 | 18 | 347 | 3.2 | 9.7 | 0.00 | 0.00 | 0.00 | 31 | 1013.5 |
| 20260503210105 | 18 | 123 | 1.6 | 9.7 | 0.00 | 0.00 | 0.00 | 29 | 1013.4 |
| 20260503205603 | 18 | 161 | 1.6 | 9.7 | 0.00 | 0.00 | 0.00 | 28 | 1013.5 |
| 20260503205100 | 18 | 144 | 1.6 | 11.3 | 0.00 | 0.00 | 0.00 | 30 | 1013.7 |
| 20260503204609 | 18 | 136 | 1.6 | 12.9 | 0.00 | 0.00 | 0.00 | 27 | 1013.7 |
| 20260503204059 | 18 | 138 | 1.6 | 12.9 | 0.00 | 0.00 | 0.00 | 28 | 1013.7 |
| 20260503203600 | 18 | 341 | 0.0 | 12.9 | 0.00 | 0.00 | 0.00 | 28 | 1013.7 |
| 20260503203107 | 18 | 112 | 1.6 | 11.3 | 0.00 | 0.00 | 0.00 | 30 | 1013.6 |
| 20260503202600 | 18 | 157 | 1.6 | 11.3 | 0.00 | 0.00 | 0.00 | 36 | 1013.7 |
| 20260503202100 | 17 | 0 | 1.6 | 11.3 | 0.00 | 0.00 | 0.00 | 28 | 1013.7 |
| 20260503201601 | 17 | 143 | 3.2 | 17.7 | 0.00 | 0.00 | 0.00 | 32 | 1013.8 |
| 20260503201100 | 17 | 0 | 3.2 | 17.7 | 0.00 | 0.00 | 0.00 | 31 | 1013.9 |
| 20260503200559 | 18 | 253 | 1.6 | 14.5 | 0.00 | 0.00 | 0.00 | 27 | 1014.1 |
| 20260503195559 | 17 | 330 | 3.2 | 11.3 | 0.00 | 0.00 | 0.00 | 29 | 1014.5 |
| 20260503195100 | 17 | 2 | 1.6 | 9.7 | 0.00 | 0.00 | 0.00 | 35 | 1014.3 |
| 20260503194624 | 17 | 144 | 1.6 | 9.7 | 0.00 | 0.00 | 0.00 | 31 | 1014.4 |
| 20260503194100 | 16 | 94 | 3.2 | 17.7 | 0.00 | 0.00 | 0.00 | 31 | 1014.3 |
| 20260503193600 | 16 | 148 | 3.2 | 17.7 | 0.00 | 0.00 | 0.00 | 31 | 1014.4 |
| 20260503193100 | 16 | 122 | 4.8 | 17.7 | 0.00 | 0.00 | 0.00 | 30 | 1014.6 |
| 20260503192559 | 16 | 128 | 3.2 | 17.7 | 0.00 | 0.00 | 0.00 | 30 | 1014.5 |
| 20260503192100 | 16 | 0 | 3.2 | 17.7 | 0.00 | 0.00 | 0.00 | 28 | 1014.6 |
| 20260503191603 | 17 | 336 | 3.2 | 17.7 | 0.00 | 0.00 | 0.00 | 31 | 1014.7 |
| 20260503191059 | 16 | 347 | 3.2 | 14.5 | 0.00 | 0.00 | 0.00 | 33 | 1014.6 |
| 20260503190559 | 16 | 135 | 3.2 | 14.5 | 0.00 | 0.00 | 0.00 | 35 | 1014.8 |
| 20260503190103 | 16 | 252 | 1.6 | 12.9 | 0.00 | 0.00 | 0.00 | 32 | 1015.0 |
| 20260503185600 | 16 | 147 | 1.6 | 12.9 | 0.00 | 0.00 | 0.00 | 32 | 1014.8 |
| 20260503185100 | 16 | 158 | 3.2 | 12.9 | 0.00 | 0.00 | 0.00 | 32 | 1014.9 |
| 20260503184600 | 16 | 348 | 3.2 | 11.3 | 0.00 | 0.00 | 0.00 | 31 | 1015.1 |
| 20260503184059 | 16 | 139 | 3.2 | 14.5 | 0.00 | 0.00 | 0.00 | 32 | 1015.0 |
| 20260503183600 | 16 | 175 | 1.6 | 20.9 | 0.00 | 0.00 | 0.00 | 33 | 1015.2 |
| 20260503183108 | 16 | 2 | 3.2 | 20.9 | 0.00 | 0.00 | 0.00 | 39 | 1015.3 |
| 20260503182559 | 16 | 143 | 4.8 | 20.9 | 0.00 | 0.00 | 0.00 | 34 | 1015.2 |
| 20260503182059 | 15 | 346 | 3.2 | 12.9 | 0.00 | 0.00 | 0.00 | 31 | 1015.3 |
| 20260503181558 | 15 | 128 | 4.8 | 12.9 | 0.00 | 0.00 | 0.00 | 33 | 1015.3 |
| 20260503181059 | 15 | 128 | 1.6 | 12.9 | 0.00 | 0.00 | 0.00 | 34 | 1015.3 |
| 20260503180559 | 16 | 69 | 3.2 | 9.7 | 0.00 | 0.00 | 0.00 | 39 | 1015.4 |
| 20260503180107 | 15 | 154 | 3.2 | 12.9 | 0.00 | 0.00 | 0.00 | 33 | 1015.4 |
| 20260503175559 | 15 | 265 | 1.6 | 12.9 | 0.00 | 0.00 | 0.00 | 38 | 1015.4 |